| time (UTC) | temp F | wind direction | speed MPH | gust MPH | rain 1hr in | rain 24hr in | rain mn in | humidity % | barometer mb |
| 20260902044820 | 78 | 341 | 0.0 | 0.0 | 0.00 | 0.00 | 0.00 | 83 | 1017.4 |
| 20260902044317 | 78 | 341 | 0.0 | 0.0 | 0.00 | 0.00 | 0.00 | 81 | 1017.3 |
| 20260902043816 | 79 | 341 | 0.0 | 0.0 | 0.00 | 0.00 | 0.00 | 81 | 1017.2 |
| 20260902043315 | 79 | 341 | 0.0 | 0.0 | 0.00 | 0.00 | 0.00 | 81 | 1017.3 |
| 20260902042814 | 80 | 341 | 0.0 | 0.0 | 0.00 | 0.00 | 0.00 | 81 | 1017.1 |
| 20260902042312 | 80 | 341 | 0.0 | 0.0 | 0.00 | 0.00 | 0.00 | 80 | 1017.1 |
| 20260902041838 | 81 | 341 | 0.0 | 0.0 | 0.00 | 0.00 | 0.00 | 77 | 1017.1 |
| 20260902041337 | 81 | 341 | 0.0 | 0.0 | 0.00 | 0.00 | 0.00 | 76 | 1017.1 |
| 20260902040835 | 81 | 341 | 0.0 | 0.0 | 0.00 | 0.00 | 0.00 | 75 | 1017.0 |
| 20260902040335 | 81 | 341 | 0.0 | 0.0 | 0.00 | 0.00 | 0.00 | 75 | 1017.0 |
| 20260902035854 | 81 | 341 | 0.0 | 0.0 | 0.00 | 0.00 | 0.00 | 75 | 1016.9 |
| 20260902035332 | 81 | 341 | 0.0 | 0.0 | 0.00 | 0.00 | 0.00 | 75 | 1016.8 |
| 20260902034826 | 81 | 341 | 0.0 | 0.0 | 0.00 | 0.00 | 0.00 | 76 | 1016.8 |
| 20260902034328 | 81 | 341 | 0.0 | 0.0 | 0.00 | 0.00 | 0.00 | 75 | 1016.8 |
| 20260902033828 | 81 | 341 | 0.0 | 0.0 | 0.00 | 0.00 | 0.00 | 76 | 1016.7 |
| 20260902033329 | 80 | 341 | 0.0 | 0.0 | 0.00 | 0.00 | 0.00 | 78 | 1016.7 |
| 20260902032834 | 80 | 341 | 0.0 | 0.0 | 0.00 | 0.00 | 0.00 | 78 | 1016.7 |
| 20260902032334 | 80 | 341 | 0.0 | 0.0 | 0.00 | 0.00 | 0.00 | 78 | 1016.7 |
| 20260902031840 | 80 | 341 | 0.0 | 0.0 | 0.00 | 0.00 | 0.00 | 79 | 1016.8 |
| 20260902031320 | 80 | 341 | 0.0 | 0.0 | 0.00 | 0.00 | 0.00 | 79 | 1016.9 |
| 20260902030821 | 80 | 341 | 0.0 | 0.0 | 0.00 | 0.00 | 0.00 | 79 | 1016.8 |
| 20260902030322 | 80 | 341 | 0.0 | 0.0 | 0.00 | 0.00 | 0.00 | 79 | 1016.8 |
| 20260902025846 | 80 | 341 | 0.0 | 0.0 | 0.00 | 0.00 | 0.00 | 79 | 1016.9 |
| 20260902025354 | 80 | 341 | 0.0 | 0.0 | 0.00 | 0.00 | 0.00 | 79 | 1016.8 |
| 20260902024835 | 80 | 341 | 0.0 | 0.0 | 0.00 | 0.00 | 0.00 | 79 | 1016.8 |
| 20260902024337 | 80 | 341 | 0.0 | 0.0 | 0.00 | 0.00 | 0.00 | 79 | 1016.9 |
| 20260902023816 | 80 | 341 | 0.0 | 0.0 | 0.00 | 0.00 | 0.00 | 78 | 1016.8 |
| 20260902023317 | 81 | 341 | 0.0 | 0.0 | 0.00 | 0.00 | 0.00 | 79 | 1016.9 |
| 20260902022818 | 81 | 341 | 0.0 | 0.0 | 0.00 | 0.00 | 0.00 | 78 | 1016.9 |
| 20260902022319 | 80 | 341 | 0.0 | 0.0 | 0.00 | 0.00 | 0.00 | 78 | 1016.8 |
| 20260902021825 | 80 | 341 | 0.0 | 0.0 | 0.00 | 0.00 | 0.00 | 79 | 1016.8 |
| 20260902021326 | 79 | 341 | 0.0 | 0.0 | 0.00 | 0.00 | 0.00 | 80 | 1016.9 |
| 20260902020827 | 79 | 341 | 0.0 | 1.0 | 0.00 | 0.00 | 0.00 | 80 | 1016.8 |
| 20260902020322 | 79 | 341 | 0.0 | 1.0 | 0.00 | 0.00 | 0.00 | 81 | 1016.7 |
| 20260902015823 | 80 | 341 | 0.0 | 0.0 | 0.00 | 0.00 | 0.00 | 80 | 1016.5 |
| 20260902015324 | 80 | 341 | 0.0 | 0.0 | 0.00 | 0.00 | 0.00 | 80 | 1016.5 |
| 20260902014824 | 80 | 341 | 0.0 | 0.0 | 0.00 | 0.00 | 0.00 | 80 | 1016.5 |
| 20260902014324 | 80 | 341 | 0.0 | 0.0 | 0.00 | 0.00 | 0.00 | 79 | 1016.4 |
| 20260902013854 | 80 | 341 | 0.0 | 0.0 | 0.00 | 0.00 | 0.00 | 80 | 1016.4 |
| 20260902013331 | 80 | 341 | 0.0 | 0.0 | 0.00 | 0.00 | 0.00 | 80 | 1016.3 |
| 20260902012812 | 79 | 341 | 0.0 | 0.0 | 0.00 | 0.00 | 0.00 | 80 | 1016.3 |
| 20260902012337 | 79 | 341 | 0.0 | 0.0 | 0.00 | 0.00 | 0.00 | 82 | 1016.4 |
| 20260902011837 | 80 | 341 | 0.0 | 0.0 | 0.00 | 0.00 | 0.00 | 82 | 1016.3 |
| 20260902011316 | 80 | 341 | 0.0 | 1.0 | 0.00 | 0.00 | 0.00 | 81 | 1016.2 |
| 20260902010812 | 80 | 341 | 0.0 | 1.0 | 0.00 | 0.00 | 0.00 | 81 | 1016.3 |
| 20260902010312 | 79 | 341 | 0.0 | 0.0 | 0.00 | 0.00 | 0.00 | 81 | 1016.2 |
| 20260902005813 | 79 | 341 | 0.0 | 0.0 | 0.00 | 0.00 | 0.00 | 84 | 1016.1 |
| 20260902005316 | 79 | 341 | 0.0 | 0.0 | 0.00 | 0.00 | 0.00 | 84 | 1016.0 |
| 20260902004844 | 80 | 341 | 0.0 | 0.0 | 0.00 | 0.00 | 0.00 | 84 | 1015.9 |
| 20260902004324 | 80 | 341 | 0.0 | 0.0 | 0.00 | 0.00 | 0.00 | 83 | 1015.9 |
| 20260902003824 | 80 | 341 | 0.0 | 0.0 | 0.00 | 0.00 | 0.00 | 82 | 1015.9 |
| 20260902003351 | 81 | 341 | 0.0 | 0.0 | 0.00 | 0.00 | 0.00 | 82 | 1016.1 |
| 20260902002829 | 81 | 341 | 0.0 | 0.0 | 0.00 | 0.00 | 0.00 | 81 | 1016.0 |
| 20260902002356 | 82 | 341 | 0.0 | 0.0 | 0.00 | 0.00 | 0.00 | 79 | 1015.8 |
| 20260902001830 | 82 | 341 | 0.0 | 0.0 | 0.00 | 0.00 | 0.00 | 77 | 1015.8 |
| 20260902001331 | 83 | 341 | 0.0 | 0.0 | 0.00 | 0.00 | 0.00 | 77 | 1015.8 |
| 20260902000833 | 83 | 341 | 0.0 | 0.0 | 0.00 | 0.00 | 0.00 | 76 | 1015.8 |
| 20260902000312 | 83 | 341 | 0.0 | 0.0 | 0.00 | 0.00 | 0.00 | 76 | 1015.9 |
| 20260901235812 | 84 | 341 | 0.0 | 0.0 | 0.00 | 0.00 | 0.00 | 75 | 1015.9 |
| 20260901235313 | 84 | 341 | 0.0 | 0.0 | 0.00 | 0.00 | 0.00 | 74 | 1015.8 |
| 20260901234840 | 85 | 341 | 0.0 | 0.0 | 0.00 | 0.00 | 0.00 | 73 | 1015.8 |
| 20260901234335 | 86 | 341 | 0.0 | 0.0 | 0.00 | 0.00 | 0.00 | 72 | 1015.7 |
| 20260901233836 | 87 | 341 | 0.0 | 0.0 | 0.00 | 0.00 | 0.00 | 70 | 1015.7 |
| 20260901233336 | 88 | 341 | 0.0 | 0.0 | 0.00 | 0.00 | 0.00 | 68 | 1015.6 |
| 20260901232836 | 89 | 341 | 0.0 | 0.0 | 0.00 | 0.00 | 0.00 | 67 | 1015.8 |
| 20260901232312 | 90 | 341 | 0.0 | 0.0 | 0.00 | 0.00 | 0.00 | 64 | 1015.8 |
| 20260901231812 | 90 | 341 | 0.0 | 0.0 | 0.00 | 0.00 | 0.00 | 65 | 1015.7 |
| 20260901231314 | 91 | 341 | 0.0 | 0.0 | 0.00 | 0.00 | 0.00 | 64 | 1015.9 |
| 20260901230813 | 92 | 341 | 0.0 | 0.0 | 0.00 | 0.00 | 0.00 | 62 | 1015.9 |
| 20260901230314 | 93 | 341 | 0.0 | 0.0 | 0.00 | 0.00 | 0.00 | 61 | 1016.0 |
| 20260901225815 | 94 | 341 | 0.0 | 0.0 | 0.00 | 0.00 | 0.00 | 60 | 1016.0 |
| 20260901225342 | 95 | 341 | 0.0 | 1.0 | 0.00 | 0.00 | 0.00 | 57 | 1016.0 |
| 20260901224822 | 97 | 341 | 0.0 | 1.0 | 0.00 | 0.00 | 0.00 | 56 | 1016.1 |
| 20260901224325 | 100 | 341 | 0.0 | 0.0 | 0.00 | 0.00 | 0.00 | 52 | 1016.0 |
| 20260901223826 | 100 | 341 | 0.0 | 0.0 | 0.00 | 0.00 | 0.00 | 52 | 1016.2 |
| 20260901223352 | 99 | 341 | 0.0 | 2.0 | 0.00 | 0.00 | 0.00 | 52 | 1016.0 |
| 20260901222820 | 100 | 341 | 0.0 | 2.0 | 0.00 | 0.00 | 0.00 | 49 | 1016.0 |
| 20260901222346 | 100 | 341 | 0.0 | 1.0 | 0.00 | 0.00 | 0.00 | 50 | 1016.0 |
| 20260901221825 | 100 | 341 | 0.0 | 1.0 | 0.00 | 0.00 | 0.00 | 49 | 1016.0 |
| 20260901221326 | 100 | 341 | 0.0 | 1.0 | 0.00 | 0.00 | 0.00 | 48 | 1015.9 |
| 20260901220826 | 100 | 341 | 0.0 | 0.0 | 0.00 | 0.00 | 0.00 | 48 | 1016.1 |
| 20260901220327 | 99 | 341 | 0.0 | 3.0 | 0.00 | 0.00 | 0.00 | 48 | 1016.0 |
| 20260901215828 | 99 | 341 | 1.0 | 3.0 | 0.00 | 0.00 | 0.00 | 45 | 1015.9 |
| 20260901215356 | 100 | 341 | 1.0 | 3.0 | 0.00 | 0.00 | 0.00 | 45 | 1016.0 |
| 20260901214834 | 100 | 341 | 1.0 | 2.0 | 0.00 | 0.00 | 0.00 | 48 | 1015.9 |
| 20260901214335 | 99 | 341 | 1.0 | 3.0 | 0.00 | 0.00 | 0.00 | 46 | 1015.8 |
| 20260901213834 | 98 | 341 | 1.0 | 4.0 | 0.00 | 0.00 | 0.00 | 45 | 1015.9 |
| 20260901213337 | 98 | 341 | 2.0 | 4.0 | 0.00 | 0.00 | 0.00 | 45 | 1016.0 |
| 20260901212815 | 99 | 341 | 1.0 | 4.0 | 0.00 | 0.00 | 0.00 | 45 | 1016.0 |
| 20260901212316 | 99 | 341 | 1.0 | 3.0 | 0.00 | 0.00 | 0.00 | 46 | 1016.0 |
| 20260901211816 | 98 | 341 | 2.0 | 4.0 | 0.00 | 0.00 | 0.00 | 46 | 1016.1 |
| 20260901211315 | 98 | 341 | 1.0 | 5.0 | 0.00 | 0.00 | 0.00 | 46 | 1016.1 |
| 20260901210815 | 98 | 341 | 0.0 | 5.0 | 0.00 | 0.00 | 0.00 | 48 | 1016.1 |
| 20260901210342 | 98 | 341 | 1.0 | 4.0 | 0.00 | 0.00 | 0.00 | 49 | 1016.1 |
| 20260901205822 | 98 | 341 | 2.0 | 4.0 | 0.00 | 0.00 | 0.00 | 46 | 1016.1 |
| 20260901205323 | 98 | 341 | 3.0 | 4.0 | 0.00 | 0.00 | 0.00 | 47 | 1016.2 |
| 20260901204823 | 98 | 341 | 2.0 | 4.0 | 0.00 | 0.00 | 0.00 | 46 | 1016.2 |
| 20260901204324 | 98 | 341 | 1.0 | 6.0 | 0.00 | 0.00 | 0.00 | 47 | 1016.2 |
| 20260901203820 | 97 | 341 | 2.0 | 6.0 | 0.00 | 0.00 | 0.00 | 46 | 1016.4 |
| 20260901203320 | 98 | 341 | 2.0 | 6.0 | 0.00 | 0.00 | 0.00 | 47 | 1016.4 |
| 20260901202820 | 98 | 341 | 1.0 | 4.0 | 0.00 | 0.00 | 0.00 | 46 | 1016.4 |
| 20260901202319 | 98 | 341 | 1.0 | 6.0 | 0.00 | 0.00 | 0.00 | 46 | 1016.4 |
| 20260901201846 | 98 | 341 | 3.0 | 6.0 | 0.00 | 0.00 | 0.00 | 48 | 1016.4 |
| 20260901201326 | 98 | 341 | 1.0 | 6.0 | 0.00 | 0.00 | 0.00 | 49 | 1016.4 |
| 20260901200852 | 97 | 341 | 3.0 | 7.0 | 0.00 | 0.00 | 0.00 | 47 | 1016.4 |
| 20260901200330 | 98 | 341 | 2.0 | 5.0 | 0.00 | 0.00 | 0.00 | 46 | 1016.4 |
| 20260901195830 | 99 | 341 | 1.0 | 4.0 | 0.00 | 0.00 | 0.00 | 47 | 1016.4 |
| 20260901195331 | 98 | 341 | 2.0 | 6.0 | 0.00 | 0.00 | 0.00 | 45 | 1016.4 |
| 20260901194813 | 98 | 341 | 1.0 | 6.0 | 0.00 | 0.00 | 0.00 | 47 | 1016.5 |
| 20260901194312 | 98 | 341 | 2.0 | 4.0 | 0.00 | 0.00 | 0.00 | 47 | 1016.7 |
| 20260901193836 | 98 | 341 | 2.0 | 5.0 | 0.00 | 0.00 | 0.00 | 48 | 1016.6 |
| 20260901193337 | 98 | 341 | 4.0 | 5.0 | 0.00 | 0.00 | 0.00 | 47 | 1016.7 |
| 20260901192838 | 98 | 341 | 2.0 | 7.0 | 0.00 | 0.00 | 0.00 | 45 | 1016.7 |
| 20260901192338 | 99 | 341 | 3.0 | 7.0 | 0.00 | 0.00 | 0.00 | 45 | 1016.8 |
| 20260901191817 | 100 | 341 | 1.0 | 3.0 | 0.00 | 0.00 | 0.00 | 49 | 1016.8 |
| 20260901191344 | 99 | 341 | 0.0 | 3.0 | 0.00 | 0.00 | 0.00 | 47 | 1016.8 |
| 20260901190824 | 99 | 341 | 2.0 | 3.0 | 0.00 | 0.00 | 0.00 | 47 | 1017.0 |
| 20260901190331 | 100 | 341 | 2.0 | 3.0 | 0.00 | 0.00 | 0.00 | 46 | 1017.1 |
| 20260901185832 | 101 | 341 | 1.0 | 3.0 | 0.00 | 0.00 | 0.00 | 49 | 1017.1 |
| 20260901185333 | 100 | 341 | 1.0 | 3.0 | 0.00 | 0.00 | 0.00 | 47 | 1017.1 |
| 20260901184829 | 99 | 341 | 0.0 | 3.0 | 0.00 | 0.00 | 0.00 | 50 | 1017.3 |
| 20260901184330 | 97 | 341 | 1.0 | 4.0 | 0.00 | 0.00 | 0.00 | 50 | 1017.5 |
| 20260901183812 | 96 | 341 | 1.0 | 4.0 | 0.00 | 0.00 | 0.00 | 49 | 1017.4 |
| 20260901183338 | 98 | 341 | 1.0 | 4.0 | 0.00 | 0.00 | 0.00 | 51 | 1017.4 |
| 20260901182816 | 96 | 341 | 0.0 | 5.0 | 0.00 | 0.00 | 0.00 | 51 | 1017.5 |
| 20260901182317 | 96 | 341 | 2.0 | 5.0 | 0.00 | 0.00 | 0.00 | 51 | 1017.4 |
| 20260901181818 | 97 | 341 | 2.0 | 4.0 | 0.00 | 0.00 | 0.00 | 48 | 1017.3 |
| 20260901181317 | 97 | 341 | 0.0 | 3.0 | 0.00 | 0.00 | 0.00 | 51 | 1017.4 |
| 20260901180818 | 97 | 341 | 2.0 | 5.0 | 0.00 | 0.00 | 0.00 | 51 | 1017.3 |
| 20260901180320 | 98 | 341 | 2.0 | 5.0 | 0.00 | 0.00 | 0.00 | 54 | 1017.3 |
| 20260901175821 | 98 | 341 | 1.0 | 4.0 | 0.00 | 0.00 | 0.00 | 50 | 1017.3 |
| 20260901175349 | 96 | 341 | 2.0 | 3.0 | 0.00 | 0.00 | 0.00 | 52 | 1017.4 |
| 20260901174824 | 96 | 341 | 2.0 | 5.0 | 0.00 | 0.00 | 0.00 | 51 | 1017.3 |
| 20260901174320 | 96 | 341 | 2.0 | 5.0 | 0.00 | 0.00 | 0.00 | 54 | 1017.4 |
| 20260901173821 | 95 | 341 | 2.0 | 5.0 | 0.00 | 0.00 | 0.00 | 57 | 1017.3 |
| 20260901173347 | 95 | 341 | 2.0 | 5.0 | 0.00 | 0.00 | 0.00 | 51 | 1017.3 |
| 20260901172827 | 96 | 341 | 2.0 | 5.0 | 0.00 | 0.00 | 0.00 | 52 | 1017.4 |
| 20260901172328 | 96 | 341 | 1.0 | 5.0 | 0.00 | 0.00 | 0.00 | 56 | 1017.4 |
| 20260901171827 | 95 | 341 | 2.0 | 5.0 | 0.00 | 0.00 | 0.00 | 55 | 1017.4 |
| 20260901171328 | 95 | 341 | 1.0 | 4.0 | 0.00 | 0.00 | 0.00 | 55 | 1017.4 |
| 20260901170829 | 95 | 341 | 1.0 | 4.0 | 0.00 | 0.00 | 0.00 | 52 | 1017.6 |
| 20260901170330 | 95 | 341 | 2.0 | 4.0 | 0.00 | 0.00 | 0.00 | 55 | 1017.5 |
| 20260901165830 | 97 | 341 | 1.0 | 4.0 | 0.00 | 0.00 | 0.00 | 55 | 1017.6 |
| 20260901165330 | 96 | 341 | 2.0 | 4.0 | 0.00 | 0.00 | 0.00 | 54 | 1017.7 |
| 20260901164827 | 96 | 341 | 0.0 | 2.0 | 0.00 | 0.00 | 0.00 | 56 | 1017.6 |
| 20260901164327 | 96 | 341 | 1.0 | 2.0 | 0.00 | 0.00 | 0.00 | 58 | 1017.7 |
| 20260901163827 | 95 | 341 | 1.0 | 3.0 | 0.00 | 0.00 | 0.00 | 57 | 1017.8 |
| 20260901163352 | 95 | 341 | 1.0 | 3.0 | 0.00 | 0.00 | 0.00 | 55 | 1018.0 |
| 20260901162858 | 95 | 341 | 1.0 | 2.0 | 0.00 | 0.00 | 0.00 | 57 | 1018.0 |
| 20260901162316 | 94 | 341 | 1.0 | 4.0 | 0.00 | 0.00 | 0.00 | 57 | 1018.0 |
| 20260901161814 | 93 | 341 | 2.0 | 4.0 | 0.00 | 0.00 | 0.00 | 60 | 1018.1 |
| 20260901161343 | 92 | 341 | 1.0 | 4.0 | 0.00 | 0.00 | 0.00 | 62 | 1018.1 |
| 20260901160820 | 92 | 341 | 0.0 | 4.0 | 0.00 | 0.00 | 0.00 | 61 | 1018.2 |
| 20260901160344 | 91 | 341 | 0.0 | 5.0 | 0.00 | 0.00 | 0.00 | 62 | 1018.3 |
| 20260901155823 | 91 | 341 | 2.0 | 6.0 | 0.00 | 0.00 | 0.00 | 64 | 1018.4 |
| 20260901155322 | 91 | 341 | 3.0 | 6.0 | 0.00 | 0.00 | 0.00 | 62 | 1018.4 |
| 20260901154324 | 91 | 341 | 2.0 | 4.0 | 0.00 | 0.00 | 0.00 | 65 | 1018.6 |
| 20260901153825 | 90 | 341 | 1.0 | 5.0 | 0.00 | 0.00 | 0.00 | 67 | 1018.6 |
| 20260901153327 | 89 | 341 | 2.0 | 4.0 | 0.00 | 0.00 | 0.00 | 71 | 1018.7 |
| 20260901152826 | 89 | 341 | 1.0 | 5.0 | 0.00 | 0.00 | 0.00 | 72 | 1018.7 |
| 20260901152327 | 88 | 341 | 2.0 | 6.0 | 0.00 | 0.00 | 0.00 | 73 | 1018.7 |
| 20260901151854 | 88 | 341 | 3.0 | 6.0 | 0.00 | 0.00 | 0.00 | 70 | 1018.7 |
| 20260901151331 | 88 | 341 | 1.0 | 5.0 | 0.00 | 0.00 | 0.00 | 73 | 1018.7 |
| 20260901150831 | 87 | 341 | 2.0 | 5.0 | 0.00 | 0.00 | 0.00 | 74 | 1018.8 |
| 20260901150333 | 86 | 341 | 2.0 | 4.0 | 0.00 | 0.00 | 0.00 | 76 | 1018.7 |
| 20260901145829 | 86 | 341 | 2.0 | 4.0 | 0.00 | 0.00 | 0.00 | 76 | 1018.7 |
| 20260901145330 | 85 | 341 | 1.0 | 6.0 | 0.00 | 0.00 | 0.00 | 78 | 1018.9 |
| 20260901144830 | 85 | 341 | 2.0 | 6.0 | 0.00 | 0.00 | 0.00 | 79 | 1018.9 |
| 20260901144329 | 84 | 341 | 1.0 | 3.0 | 0.00 | 0.00 | 0.00 | 81 | 1018.9 |
| 20260901142843 | 83 | 341 | 1.0 | 5.0 | 0.00 | 0.00 | 0.00 | 82 | 1018.9 |
| 20260901142324 | 83 | 341 | 1.0 | 5.0 | 0.00 | 0.00 | 0.00 | 82 | 1019.0 |
| 20260901141822 | 83 | 341 | 1.0 | 4.0 | 0.00 | 0.00 | 0.00 | 82 | 1018.9 |
| 20260901141321 | 82 | 341 | 1.0 | 7.0 | 0.00 | 0.00 | 0.00 | 82 | 1018.9 |
| 20260901140818 | 82 | 341 | 2.0 | 7.0 | 0.00 | 0.00 | 0.00 | 82 | 1018.9 |
| 20260901140318 | 81 | 341 | 1.0 | 5.0 | 0.00 | 0.00 | 0.00 | 83 | 1019.0 |
| 20260901135819 | 81 | 341 | 2.0 | 5.0 | 0.00 | 0.00 | 0.00 | 84 | 1018.9 |
| 20260901135321 | 81 | 341 | 2.0 | 5.0 | 0.00 | 0.00 | 0.00 | 84 | 1019.0 |
| 20260901134821 | 81 | 341 | 1.0 | 3.0 | 0.00 | 0.00 | 0.00 | 85 | 1018.9 |
| 20260901134321 | 80 | 341 | 1.0 | 4.0 | 0.00 | 0.00 | 0.00 | 85 | 1018.9 |
| 20260901133821 | 80 | 341 | 0.0 | 7.0 | 0.00 | 0.00 | 0.00 | 86 | 1018.9 |
| 20260901133321 | 80 | 341 | 3.0 | 7.0 | 0.00 | 0.00 | 0.00 | 86 | 1019.0 |
| 20260901132847 | 80 | 341 | 1.0 | 3.0 | 0.00 | 0.00 | 0.00 | 87 | 1018.9 |
| 20260901132328 | 79 | 341 | 1.0 | 3.0 | 0.00 | 0.00 | 0.00 | 87 | 1018.9 |
| 20260901131828 | 79 | 341 | 2.0 | 3.0 | 0.00 | 0.00 | 0.00 | 87 | 1018.9 |
| 20260901131328 | 79 | 341 | 1.0 | 3.0 | 0.00 | 0.00 | 0.00 | 87 | 1018.9 |
| 20260901130824 | 78 | 341 | 1.0 | 3.0 | 0.00 | 0.00 | 0.00 | 87 | 1018.9 |
| 20260901130325 | 78 | 341 | 1.0 | 3.0 | 0.00 | 0.00 | 0.00 | 88 | 1018.9 |
| 20260901125825 | 78 | 341 | 1.0 | 4.0 | 0.00 | 0.00 | 0.00 | 88 | 1018.9 |
| 20260901125324 | 77 | 341 | 1.0 | 4.0 | 0.00 | 0.00 | 0.00 | 89 | 1019.0 |
| 20260901124824 | 77 | 341 | 1.0 | 3.0 | 0.00 | 0.00 | 0.00 | 91 | 1019.0 |
| 20260901124326 | 76 | 341 | 0.0 | 4.0 | 0.00 | 0.00 | 0.00 | 92 | 1019.0 |
| 20260901123825 | 76 | 341 | 1.0 | 4.0 | 0.00 | 0.00 | 0.00 | 92 | 1018.9 |
| 20260901123326 | 76 | 341 | 0.0 | 2.0 | 0.00 | 0.00 | 0.00 | 93 | 1019.0 |
| 20260901122826 | 75 | 341 | 0.0 | 2.0 | 0.00 | 0.00 | 0.00 | 94 | 1018.9 |
| 20260901122327 | 75 | 341 | 0.0 | 3.0 | 0.00 | 0.00 | 0.00 | 95 | 1019.0 |
| 20260901121824 | 74 | 341 | 0.0 | 2.0 | 0.00 | 0.00 | 0.00 | 96 | 1018.9 |
| 20260901121325 | 74 | 341 | 0.0 | 2.0 | 0.00 | 0.00 | 0.00 | 98 | 1018.9 |
| 20260901120826 | 73 | 341 | 0.0 | 1.0 | 0.00 | 0.00 | 0.00 | 99 | 1018.9 |
| 20260901120321 | 73 | 341 | 0.0 | 2.0 | 0.00 | 0.00 | 0.00 | 99 | 1018.8 |
| 20260901115828 | 72 | 341 | 0.0 | 1.0 | 0.00 | 0.00 | 0.00 | 99 | 1018.6 |
| 20260901115354 | 72 | 341 | 0.0 | 0.0 | 0.00 | 0.00 | 0.00 | 99 | 1018.7 |
| 20260901114833 | 72 | 341 | 0.0 | 0.0 | 0.00 | 0.00 | 0.00 | 99 | 1018.6 |
| 20260901114312 | 71 | 341 | 0.0 | 0.0 | 0.00 | 0.00 | 0.00 | 99 | 1018.6 |
| 20260901113812 | 71 | 341 | 0.0 | 0.0 | 0.00 | 0.00 | 0.00 | 99 | 1018.5 |
| 20260901113314 | 71 | 341 | 0.0 | 0.0 | 0.00 | 0.00 | 0.00 | 99 | 1018.4 |
| 20260901112813 | 70 | 341 | 0.0 | 0.0 | 0.00 | 0.00 | 0.00 | 98 | 1018.3 |
| 20260901112313 | 70 | 341 | 0.0 | 0.0 | 0.00 | 0.00 | 0.00 | 98 | 1018.4 |
| 20260901111816 | 70 | 341 | 0.0 | 0.0 | 0.00 | 0.00 | 0.00 | 98 | 1018.3 |
| 20260901111315 | 70 | 341 | 0.0 | 0.0 | 0.00 | 0.00 | 0.00 | 98 | 1018.2 |
| 20260901110813 | 70 | 341 | 0.0 | 0.0 | 0.00 | 0.00 | 0.00 | 98 | 1018.2 |
| 20260901110340 | 70 | 341 | 0.0 | 0.0 | 0.00 | 0.00 | 0.00 | 98 | 1018.2 |
| 20260901105846 | 70 | 341 | 0.0 | 0.0 | 0.00 | 0.00 | 0.00 | 98 | 1018.0 |
| 20260901105323 | 70 | 341 | 0.0 | 0.0 | 0.00 | 0.00 | 0.00 | 98 | 1018.1 |
| 20260901104852 | 70 | 341 | 0.0 | 0.0 | 0.00 | 0.00 | 0.00 | 98 | 1018.3 |
| 20260901104331 | 70 | 341 | 0.0 | 0.0 | 0.00 | 0.00 | 0.00 | 98 | 1018.3 |
| 20260901103833 | 70 | 341 | 0.0 | 0.0 | 0.00 | 0.00 | 0.00 | 98 | 1018.2 |
| 20260901103336 | 70 | 341 | 0.0 | 0.0 | 0.00 | 0.00 | 0.00 | 98 | 1018.2 |
| 20260901102837 | 70 | 341 | 0.0 | 0.0 | 0.00 | 0.00 | 0.00 | 98 | 1018.1 |
| 20260901102317 | 71 | 341 | 0.0 | 0.0 | 0.00 | 0.00 | 0.00 | 98 | 1018.2 |
| 20260901101815 | 71 | 341 | 0.0 | 0.0 | 0.00 | 0.00 | 0.00 | 98 | 1018.1 |
| 20260901101314 | 71 | 341 | 0.0 | 0.0 | 0.00 | 0.00 | 0.00 | 98 | 1018.2 |
| 20260901100815 | 71 | 341 | 0.0 | 0.0 | 0.00 | 0.00 | 0.00 | 99 | 1018.1 |
| 20260901100316 | 71 | 341 | 0.0 | 0.0 | 0.00 | 0.00 | 0.00 | 98 | 1018.1 |
| 20260901095817 | 71 | 341 | 0.0 | 0.0 | 0.00 | 0.00 | 0.00 | 98 | 1018.1 |
| 20260901095322 | 71 | 341 | 0.0 | 0.0 | 0.00 | 0.00 | 0.00 | 98 | 1018.1 |
| 20260901094822 | 70 | 341 | 0.0 | 0.0 | 0.00 | 0.00 | 0.00 | 98 | 1018.1 |
| 20260901094324 | 70 | 341 | 0.0 | 0.0 | 0.00 | 0.00 | 0.00 | 98 | 1018.0 |
| 20260901093851 | 71 | 341 | 0.0 | 0.0 | 0.00 | 0.00 | 0.00 | 98 | 1018.0 |
| 20260901093333 | 71 | 341 | 0.0 | 0.0 | 0.00 | 0.00 | 0.00 | 98 | 1018.1 |
| 20260901092836 | 71 | 341 | 0.0 | 0.0 | 0.00 | 0.00 | 0.00 | 98 | 1018.0 |
| 20260901092333 | 70 | 341 | 0.0 | 0.0 | 0.00 | 0.00 | 0.00 | 98 | 1018.1 |
| 20260901091836 | 70 | 341 | 0.0 | 0.0 | 0.00 | 0.00 | 0.00 | 98 | 1018.2 |
| 20260901091337 | 70 | 341 | 0.0 | 0.0 | 0.00 | 0.00 | 0.00 | 98 | 1018.2 |
| 20260901090836 | 70 | 341 | 0.0 | 0.0 | 0.00 | 0.00 | 0.00 | 98 | 1018.1 |
| 20260901090338 | 70 | 341 | 0.0 | 0.0 | 0.00 | 0.00 | 0.00 | 98 | 1018.1 |
| 20260901085818 | 70 | 341 | 0.0 | 0.0 | 0.00 | 0.00 | 0.00 | 98 | 1018.0 |
| 20260901085325 | 71 | 341 | 0.0 | 0.0 | 0.00 | 0.00 | 0.00 | 98 | 1018.0 |
| 20260901084825 | 71 | 341 | 0.0 | 0.0 | 0.00 | 0.00 | 0.00 | 98 | 1017.9 |
| 20260901084325 | 71 | 341 | 0.0 | 0.0 | 0.00 | 0.00 | 0.00 | 98 | 1018.1 |
| 20260901083826 | 71 | 341 | 0.0 | 0.0 | 0.00 | 0.00 | 0.00 | 98 | 1018.2 |
| 20260901083326 | 70 | 341 | 0.0 | 0.0 | 0.00 | 0.00 | 0.00 | 98 | 1018.2 |
| 20260901082828 | 70 | 341 | 0.0 | 0.0 | 0.00 | 0.00 | 0.00 | 98 | 1018.3 |
| 20260901082326 | 71 | 341 | 0.0 | 0.0 | 0.00 | 0.00 | 0.00 | 98 | 1018.3 |
| 20260901081852 | 71 | 341 | 0.0 | 0.0 | 0.00 | 0.00 | 0.00 | 98 | 1018.3 |
| 20260901081333 | 71 | 341 | 0.0 | 0.0 | 0.00 | 0.00 | 0.00 | 98 | 1018.4 |
| 20260901080834 | 70 | 341 | 0.0 | 0.0 | 0.00 | 0.00 | 0.00 | 98 | 1018.3 |
| 20260901080313 | 70 | 341 | 0.0 | 0.0 | 0.00 | 0.00 | 0.00 | 97 | 1018.4 |
| 20260901075814 | 70 | 341 | 0.0 | 0.0 | 0.00 | 0.00 | 0.00 | 97 | 1018.3 |
| 20260901075314 | 70 | 341 | 0.0 | 0.0 | 0.00 | 0.00 | 0.00 | 97 | 1018.3 |
| 20260901074815 | 70 | 341 | 0.0 | 0.0 | 0.00 | 0.00 | 0.00 | 97 | 1018.2 |
| 20260901074316 | 70 | 341 | 0.0 | 0.0 | 0.00 | 0.00 | 0.00 | 97 | 1018.2 |
| 20260901073817 | 71 | 341 | 0.0 | 0.0 | 0.00 | 0.00 | 0.00 | 97 | 1018.2 |
| 20260901073318 | 71 | 341 | 0.0 | 0.0 | 0.00 | 0.00 | 0.00 | 97 | 1018.2 |
| 20260901072842 | 71 | 341 | 0.0 | 0.0 | 0.00 | 0.00 | 0.00 | 97 | 1018.2 |
| 20260901072322 | 71 | 341 | 0.0 | 0.0 | 0.00 | 0.00 | 0.00 | 97 | 1018.2 |
| 20260901071850 | 71 | 341 | 0.0 | 0.0 | 0.00 | 0.00 | 0.00 | 97 | 1018.1 |
| 20260901071330 | 72 | 341 | 0.0 | 0.0 | 0.00 | 0.00 | 0.00 | 97 | 1018.2 |
| 20260901070832 | 72 | 341 | 0.0 | 0.0 | 0.00 | 0.00 | 0.00 | 97 | 1018.3 |
| 20260901070331 | 71 | 341 | 0.0 | 0.0 | 0.00 | 0.00 | 0.00 | 97 | 1018.3 |
| 20260901065813 | 71 | 341 | 0.0 | 0.0 | 0.00 | 0.00 | 0.00 | 97 | 1018.4 |
| 20260901065313 | 71 | 341 | 0.0 | 0.0 | 0.00 | 0.00 | 0.00 | 97 | 1018.4 |
| 20260901064814 | 71 | 341 | 0.0 | 0.0 | 0.00 | 0.00 | 0.00 | 97 | 1018.5 |
| 20260901064314 | 71 | 341 | 0.0 | 0.0 | 0.00 | 0.00 | 0.00 | 97 | 1018.5 |
| 20260901063816 | 71 | 341 | 0.0 | 0.0 | 0.00 | 0.00 | 0.00 | 97 | 1018.5 |
| 20260901063317 | 72 | 341 | 0.0 | 0.0 | 0.00 | 0.00 | 0.00 | 96 | 1018.6 |
| 20260901062817 | 72 | 341 | 0.0 | 0.0 | 0.00 | 0.00 | 0.00 | 97 | 1018.5 |
| 20260901062314 | 72 | 341 | 0.0 | 0.0 | 0.00 | 0.00 | 0.00 | 97 | 1018.6 |
| 20260901061841 | 72 | 341 | 0.0 | 0.0 | 0.00 | 0.00 | 0.00 | 97 | 1018.8 |
| 20260901061321 | 72 | 341 | 0.0 | 0.0 | 0.00 | 0.00 | 0.00 | 97 | 1018.8 |
| 20260901060829 | 72 | 341 | 0.0 | 0.0 | 0.00 | 0.00 | 0.00 | 96 | 1018.9 |
| 20260901060329 | 72 | 341 | 0.0 | 0.0 | 0.00 | 0.00 | 0.00 | 96 | 1019.0 |
| 20260901055830 | 72 | 341 | 0.0 | 0.0 | 0.00 | 0.00 | 0.00 | 96 | 1018.9 |
| 20260901055332 | 72 | 341 | 0.0 | 0.0 | 0.00 | 0.00 | 0.00 | 96 | 1018.9 |
| 20260901054834 | 72 | 341 | 0.0 | 0.0 | 0.00 | 0.00 | 0.00 | 96 | 1019.0 |
| 20260901054333 | 72 | 341 | 0.0 | 0.0 | 0.00 | 0.00 | 0.00 | 96 | 1019.1 |
| 20260901053813 | 72 | 341 | 0.0 | 0.0 | 0.00 | 0.00 | 0.00 | 96 | 1019.1 |
| 20260901053314 | 72 | 341 | 0.0 | 0.0 | 0.00 | 0.00 | 0.00 | 96 | 1019.0 |
| 20260901052858 | 72 | 341 | 0.0 | 0.0 | 0.00 | 0.00 | 0.00 | 96 | 1019.0 |
| 20260901052337 | 72 | 341 | 0.0 | 0.0 | 0.00 | 0.00 | 0.00 | 96 | 1019.0 |
| 20260901051816 | 72 | 341 | 0.0 | 0.0 | 0.00 | 0.00 | 0.00 | 95 | 1018.9 |
| 20260901051317 | 72 | 341 | 0.0 | 0.0 | 0.00 | 0.00 | 0.00 | 95 | 1019.0 |
| 20260901050817 | 73 | 341 | 0.0 | 0.0 | 0.00 | 0.00 | 0.00 | 95 | 1019.1 |
| 20260901050318 | 73 | 341 | 0.0 | 0.0 | 0.00 | 0.00 | 0.00 | 95 | 1018.9 |
| 20260901045819 | 73 | 341 | 0.0 | 0.0 | 0.00 | 0.00 | 0.00 | 95 | 1019.0 |
| 20260901045320 | 73 | 341 | 0.0 | 0.0 | 0.00 | 0.00 | 0.00 | 95 | 1019.1 |